• In Romania
  • List of Countries
  • For 7 days
  • Water Temperature
  • Satellite Maps
  • Weather Map
  • Weather Widgets
  • user-avatar
    Login

    Hourly Weather Kipungo

    Today, 20 February, Monday

    Time Temperature Precipitation Wind Pressure Humidity
    00:00 +19°C° 0 mm 1 mps 653 mmHg 83%
    01:00 +18°C° 0 mm 1 mps 653 mmHg 86%
    02:00 +18°C° 0 mm 1 mps 652 mmHg 87%
    03:00 +16°C° 0 mm 1 mps 652 mmHg 89%
    04:00 +16°C° 0 mm 1 mps 652 mmHg 91%
    05:00 +16°C° 0 mm 1 mps 652 mmHg 87%
    06:00 +18°C° 0 mm 1 mps 652 mmHg 83%
    07:00 +18°C° 0 mm 1 mps 653 mmHg 79%
    08:00 +20°C° 0 mm 2 mps 653 mmHg 66%
    09:00 +24°C° 0 mm 2 mps 654 mmHg 53%
    10:00 +27°C° 0 mm 3 mps 655 mmHg 40%
    11:00 +28°C° 0 mm 3 mps 655 mmHg 37%
    12:00 +29°C° 0 mm 3 mps 654 mmHg 34%
    13:00 +32°C° 0 mm 4 mps 654 mmHg 31%
    14:00 +30°C° 0 mm 4 mps 654 mmHg 33%
    15:00 +30°C° 0 mm 4 mps 653 mmHg 34%
    16:00 +30°C° 0 mm 4 mps 652 mmHg 36%
    17:00 +27°C° 0 mm 4 mps 652 mmHg 44%
    18:00 +25°C° 0 mm 3 mps 652 mmHg 52%
    19:00 +22°C° 0 mm 3 mps 652 mmHg 60%
    20:00 +21°C° 0 mm 3 mps 652 mmHg 65%
    21:00 +20°C° 0 mm 3 mps 653 mmHg 70%
    22:00 +19°C° 0 mm 3 mps 653 mmHg 74%
    23:00 +18°C° 0 mm 2 mps 653 mmHg 78%

    Tomorrow, 21 February, Tuesday

    Time Temperature Precipitation Wind Pressure Humidity
    00:00 +17°C° 0 mm 2 mps 652 mmHg 81%
    01:00 +16°C° 0 mm 2 mps 652 mmHg 85%
    02:00 +16°C° 0 mm 2 mps 652 mmHg 87%
    03:00 +15°C° 0 mm 2 mps 652 mmHg 89%
    04:00 +15°C° 0 mm 1 mps 651 mmHg 91%
    05:00 +15°C° 0 mm 1 mps 652 mmHg 89%
    06:00 +16°C° 0 mm 1 mps 652 mmHg 86%
    07:00 +16°C° 0 mm 1 mps 653 mmHg 84%
    08:00 +19°C° 0 mm 2 mps 653 mmHg 70%
    09:00 +22°C° 0 mm 3 mps 654 mmHg 57%
    10:00 +26°C° 0 mm 3 mps 655 mmHg 44%
    11:00 +28°C° 0 mm 3 mps 654 mmHg 40%
    12:00 +29°C° 0 mm 4 mps 654 mmHg 36%
    13:00 +30°C° 0 mm 4 mps 654 mmHg 32%
    14:00 +30°C° 0 mm 4 mps 653 mmHg 33%
    15:00 +30°C° 0 mm 5 mps 652 mmHg 35%
    16:00 +30°C° 0 mm 5 mps 652 mmHg 36%
    17:00 +27°C° 0 mm 4 mps 652 mmHg 44%
    18:00 +25°C° 0 mm 3 mps 652 mmHg 52%
    19:00 +21°C° 0 mm 3 mps 651 mmHg 60%
    20:00 +20°C° 0 mm 2 mps 652 mmHg 64%
    21:00 +19°C° 0 mm 2 mps 652 mmHg 68%
    22:00 +18°C° 0 mm 2 mps 653 mmHg 72%
    23:00 +17°C° 0 mm 2 mps 653 mmHg 76%

    Day after tomorrow, 22 February, Wednesday

    Time Temperature Precipitation Wind Pressure Humidity
    00:00 +17°C° 0 mm 2 mps 652 mmHg 80%
    01:00 +16°C° 0 mm 2 mps 652 mmHg 84%
    02:00 +16°C° 0 mm 1 mps 652 mmHg 86%
    03:00 +15°C° 0 mm 1 mps 651 mmHg 88%
    04:00 +15°C° 0 mm 1 mps 651 mmHg 90%
    05:00 +15°C° 0 mm 1 mps 651 mmHg 87%
    06:00 +16°C° 0 mm 1 mps 652 mmHg 84%
    07:00 +16°C° 0 mm 1 mps 652 mmHg 81%
    08:00 +20°C° 0 mm 1 mps 653 mmHg 68%
    09:00 +23°C° 0 mm 2 mps 654 mmHg 54%
    10:00 +26°C° 0 mm 2 mps 655 mmHg 41%
    11:00 +28°C° 0 mm 3 mps 654 mmHg 39%
    12:00 +29°C° 0 mm 3 mps 654 mmHg 36%
    13:00 +30°C° 0 mm 3 mps 654 mmHg 34%
    14:00 +30°C° 0.1 mm 4 mps 653 mmHg 37%
    15:00 +29°C° 0.1 mm 4 mps 652 mmHg 40%
    16:00 +29°C° 0.1 mm 4 mps 652 mmHg 44%
    17:00 +27°C° 0.1 mm 3 mps 652 mmHg 51%
    18:00 +24°C° 0.1 mm 3 mps 652 mmHg 58%
    19:00 +21°C° 0.1 mm 2 mps 652 mmHg 66%
    20:00 +20°C° 0 mm 2 mps 652 mmHg 68%
    21:00 +19°C° 0 mm 2 mps 653 mmHg 71%
    22:00 +18°C° 0 mm 2 mps 653 mmHg 74%
    23:00 +18°C° 0 mm 2 mps 652 mmHg 77%

    23 February, Thursday

    Time Temperature Precipitation Wind Pressure Humidity
    00:00 +17°C° 0 mm 2 mps 652 mmHg 81%
    01:00 +16°C° 0 mm 1 mps 652 mmHg 85%
    02:00 +16°C° 0 mm 1 mps 651 mmHg 86%
    03:00 +15°C° 0 mm 1 mps 651 mmHg 88%
    04:00 +15°C° 0 mm 1 mps 651 mmHg 89%
    05:00 +15°C° 0 mm 1 mps 651 mmHg 85%
    06:00 +16°C° 0 mm 1 mps 652 mmHg 82%
    07:00 +18°C° 0 mm 1 mps 653 mmHg 78%
    08:00 +21°C° 0 mm 1 mps 653 mmHg 65%
    09:00 +24°C° 0 mm 1 mps 654 mmHg 51%
    10:00 +27°C° 0 mm 1 mps 655 mmHg 38%
    11:00 +29°C° 0 mm 2 mps 655 mmHg 35%
    12:00 +30°C° 0 mm 2 mps 654 mmHg 32%
    13:00 +32°C° 0 mm 2 mps 654 mmHg 30%
    14:00 +31°C° 0 mm 2 mps 653 mmHg 31%
    15:00 +31°C° 0 mm 3 mps 653 mmHg 32%
    16:00 +31°C° 0 mm 3 mps 652 mmHg 33%
    17:00 +28°C° 0 mm 3 mps 652 mmHg 41%
    18:00 +25°C° 0 mm 2 mps 652 mmHg 48%
    19:00 +23°C° 0 mm 2 mps 651 mmHg 56%
    20:00 +21°C° 0 mm 2 mps 652 mmHg 59%
    21:00 +20°C° 0 mm 2 mps 652 mmHg 63%
    22:00 +19°C° 0 mm 2 mps 652 mmHg 66%
    23:00 +19°C° 0 mm 2 mps 652 mmHg 69%

    24 February, Friday

    Time Temperature Precipitation Wind Pressure Humidity
    00:00 +19°C° 0 mm 1 mps 652 mmHg 72%
    01:00 +19°C° 0 mm 1 mps 651 mmHg 76%
    02:00 +18°C° 0 mm 1 mps 651 mmHg 78%
    03:00 +18°C° 0 mm 1 mps 651 mmHg 80%
    04:00 +16°C° 0 mm 1 mps 651 mmHg 82%
    05:00 +18°C° 0 mm 1 mps 651 mmHg 79%
    06:00 +19°C° 0 mm 1 mps 652 mmHg 76%
    07:00 +20°C° 0 mm 1 mps 652 mmHg 73%
    08:00 +23°C° 0 mm 1 mps 653 mmHg 61%
    09:00 +27°C° 0 mm 1 mps 654 mmHg 49%
    10:00 +30°C° 0 mm 1 mps 655 mmHg 38%
    11:00 +31°C° 0 mm 1 mps 655 mmHg 35%
    12:00 +32°C° 0 mm 1 mps 654 mmHg 33%
    13:00 +34°C° 0 mm 1 mps 654 mmHg 30%
    14:00 +33°C° 0 mm 1 mps 653 mmHg 32%
    15:00 +32°C° 0 mm 1 mps 653 mmHg 34%
    16:00 +31°C° 0 mm 2 mps 652 mmHg 35%
    17:00 +28°C° 0.3 mm 2 mps 652 mmHg 43%
    18:00 +25°C° 0.3 mm 2 mps 652 mmHg 51%
    19:00 +23°C° 0.3 mm 2 mps 651 mmHg 59%
    20:00 +21°C° 0.1 mm 2 mps 652 mmHg 64%
    21:00 +20°C° 0.1 mm 2 mps 652 mmHg 69%
    22:00 +20°C° 0.1 mm 1 mps 652 mmHg 75%
    23:00 +19°C° 0 mm 1 mps 652 mmHg 77%

    25 February, Saturday

    Time Temperature Precipitation Wind Pressure Humidity
    00:00 +19°C° 0 mm 1 mps 652 mmHg 78%
    01:00 +18°C° 0 mm 1 mps 652 mmHg 80%
    02:00 +18°C° 0 mm 1 mps 651 mmHg 82%
    03:00 +18°C° 0 mm 1 mps 651 mmHg 84%
    04:00 +18°C° 0 mm 1 mps 651 mmHg 86%
    05:00 +18°C° 0 mm 1 mps 652 mmHg 83%
    06:00 +19°C° 0 mm 1 mps 653 mmHg 81%
    07:00 +18°C° 0 mm 0 mps 653 mmHg 79%
    08:00 +22°C° 0 mm 0 mps 654 mmHg 68%
    09:00 +25°C° 0 mm 0 mps 655 mmHg 57%
    10:00 +28°C° 0 mm 0 mps 656 mmHg 46%
    11:00 +31°C° 0.1 mm 1 mps 655 mmHg 44%
    12:00 +32°C° 0.1 mm 1 mps 655 mmHg 41%
    13:00 +33°C° 0.1 mm 1 mps 654 mmHg 39%
    14:00 +32°C° 0.4 mm 1 mps 653 mmHg 43%
    15:00 +31°C° 0.4 mm 1 mps 653 mmHg 47%
    16:00 +29°C° 0.4 mm 1 mps 652 mmHg 51%
    17:00 +28°C° 0 mm 1 mps 652 mmHg 58%
    18:00 +26°C° 0 mm 1 mps 652 mmHg 65%
    19:00 +24°C° 0 mm 1 mps 652 mmHg 71%
    20:00 +23°C° 0.1 mm 1 mps 652 mmHg 75%
    21:00 +22°C° 0.1 mm 1 mps 652 mmHg 78%
    22:00 +20°C° 0.1 mm 2 mps 653 mmHg 82%
    23:00 +20°C° 0.1 mm 2 mps 652 mmHg 82%
    Show more